Location: ?p Thanh B�nh
(16.5833°N, 107.5333°E)
Time: 05:31:23
(UTC+00:00)

CZ-4B R/B - Pass Details

Date: 29 October 2020
Orbit: 388 x 461 km, 97.6° (Epoch: 29 November)

Event Time Altitude Azimuth Distance (km) Brightness Sun altitude
Rises 21:16:32 0° 144° (SE) 2,478 5.8 -22.0°
Reaches altitude 10° 21:18:52 10° 129° (SE) 1,608 5.0 -21.5°
Maximum altitude 21:21:36 22° 76° (ENE) 1,050 4.0 -20.8°
Drops below altitude 10° 21:24:21 10° 23° (NNE) 1,608 4.4 -20.2°
Sets 21:26:41 0° 8° (N) 2,479 5.2 -19.6°
